Precipitable_Water
0.92 0.92 0.89 0.88 0.86 0.86 0.86 0.85 0.87 0.85 0.86 0.89 0.88 0.92 0.97 1.01 1.06 1.10 1.15 1.23 1.32 1.37 1.45 1.55 1.66 1.72 1.80 1.85 1.89 1.90 1.89 1.90 1.95 2.06 2.09 2.06 2.01 2.01 1.99 1.94 1.87 1.82
0.90 0.90 0.90 0.87 0.86 0.90 0.91 0.93 0.90 0.88 0.87 0.90 0.94 0.97 1.00 1.01 1.05 1.09 1.10 1.13 1.21 1.28 1.37 1.43 1.50 1.58 1.67 1.74 1.80 1.82 1.85 1.87 1.84 1.94 1.95 2.01 2.04 2.04 2.01 2.00 1.95 1.91
0.87 0.85 0.84 0.83 0.84 0.86 0.89 0.92 0.91 0.92 0.93 0.96 0.97 0.96 0.97 1.03 1.04 1.09 1.11 1.11 1.11 1.17 1.27 1.35 1.37 1.41 1.47 1.54 1.62 1.67 1.72 1.77 1.79 1.86 1.87 1.88 1.96 2.01 2.05 2.06 2.02 1.96
0.80 0.82 0.83 0.86 0.88 0.88 0.91 0.89 0.88 0.89 0.90 0.88 0.90 0.95 1.01 1.04 1.06 1.05 1.07 1.09 1.10 1.09 1.11 1.17 1.21 1.26 1.32 1.39 1.47 1.52 1.58 1.63 1.70 1.77 1.78 1.84 1.89 1.93 1.98 2.07 2.08 2.03
0.78 0.80 0.82 0.83 0.84 0.86 0.88 0.87 0.86 0.86 0.84 0.86 0.90 0.96 0.97 1.00 1.01 1.02 1.01 1.02 1.04 1.05 1.10 1.13 1.16 1.17 1.22 1.29 1.37 1.38 1.43 1.49 1.59 1.64 1.67 1.70 1.79 1.85 1.93 2.00 2.01 2.00
0.82 0.83 0.83 0.84 0.86 0.87 0.87 0.87 0.87 0.86 0.87 0.87 0.91 0.95 0.95 0.96 0.95 0.96 0.98 0.97 0.98 1.01 1.08 1.13 1.15 1.18 1.19 1.17 1.17 1.17 1.21 1.28 1.43 1.53 1.55 1.56 1.61 1.72 1.81 1.88 1.96 1.97
0.81 0.80 0.82 0.88 0.88 0.90 0.90 0.90 0.91 0.91 0.91 0.92 0.93 0.91 0.94 0.93 0.92 0.91 0.94 0.97 0.99 1.02 1.04 1.06 1.06 1.09 1.16 1.18 1.19 1.16 1.17 1.22 1.30 1.37 1.42 1.46 1.45 1.47 1.63 1.75 1.81 1.86
0.81 0.82 0.88 0.89 0.89 0.89 0.87 0.87 0.87 0.89 0.91 0.91 0.89 0.91 0.94 0.91 0.92 0.94 0.96 0.97 0.96 0.96 0.99 1.02 1.06 1.08 1.12 1.16 1.16 1.14 1.13 1.20 1.24 1.30 1.35 1.37 1.40 1.31 1.34 1.46 1.62 1.69
0.84 0.85 0.88 0.88 0.87 0.86 0.84 0.85 0.86 0.88 0.91 0.89 0.90 0.92 0.95 0.94 0.94 0.95 0.96 0.97 0.96 0.96 0.96 0.96 0.99 1.04 1.09 1.11 1.11 1.10 1.11 1.15 1.22 1.27 1.30 1.29 1.29 1.32 1.33 1.33 1.30 1.39
0.85 0.87 0.87 0.86 0.83 0.84 0.83 0.84 0.86 0.88 0.91 0.90 0.91 0.94 0.94 0.97 1.00 0.99 0.99 0.98 0.98 0.98 0.99 0.99 1.00 1.02 1.04 1.06 1.08 1.10 1.10 1.11 1.14 1.20 1.26 1.30 1.31 1.32 1.34 1.35 1.31 1.25
0.87 0.88 0.86 0.85 0.84 0.84 0.83 0.85 0.87 0.88 0.89 0.88 0.90 0.90 0.93 0.96 0.99 1.03 1.00 1.00 0.99 1.00 1.01 1.02 1.04 1.06 1.06 1.08 1.11 1.14 1.12 1.10 1.07 1.10 1.17 1.25 1.31 1.32 1.34 1.35 1.34 1.30
0.91 0.91 0.89 0.87 0.87 0.87 0.86 0.87 0.87 0.87 0.86 0.87 0.89 0.87 0.89 0.94 0.97 1.00 1.01 1.01 1.03 1.04 1.05 1.06 1.08 1.09 1.10 1.10 1.11 1.13 1.13 1.11 1.09 1.08 1.11 1.19 1.26 1.30 1.31 1.31 1.33 1.35
0.92 0.91 0.90 0.89 0.88 0.89 0.90 0.89 0.88 0.89 0.89 0.87 0.90 0.88 0.87 0.87 0.92 0.96 1.01 1.03 1.04 1.07 1.07 1.08 1.09 1.11 1.12 1.13 1.14 1.15 1.15 1.13 1.11 1.10 1.10 1.13 1.20 1.25 1.28 1.31 1.33 1.35
0.95 0.93 0.90 0.89 0.91 0.91 0.91 0.90 0.90 0.90 0.91 0.92 0.93 0.90 0.90 0.90 0.90 0.92 0.98 1.03 1.05 1.06 1.09 1.11 1.11 1.11 1.13 1.15 1.15 1.16 1.17 1.17 1.19 1.15 1.12 1.11 1.15 1.21 1.28 1.31 1.32 1.32
1.00 0.98 0.93 0.91 0.92 0.92 0.91 0.88 0.87 0.87 0.89 0.91 0.92 0.92 0.95 0.96 0.98 0.98 0.98 0.98 1.02 1.05 1.07 1.10 1.11 1.11 1.15 1.16 1.15 1.17 1.20 1.20 1.21 1.20 1.18 1.14 1.15 1.19 1.26 1.31 1.32 1.33
1.03 0.99 0.95 0.92 0.91 0.90 0.89 0.88 0.86 0.84 0.85 0.88 0.91 0.95 0.98 1.01 1.02 1.02 1.01 0.99 0.99 1.02 1.06 1.08 1.10 1.14 1.17 1.20 1.25 1.25 1.23 1.22 1.23 1.21 1.19 1.18 1.17 1.17 1.21 1.27 1.30 1.33
1.03 1.00 0.99 0.96 0.94 0.91 0.89 0.87 0.85 0.84 0.83 0.84 0.90 0.94 0.98 1.02 1.04 1.02 1.02 1.03 1.03 1.02 1.02 1.05 1.09 1.13 1.16 1.18 1.19 1.21 1.23 1.22 1.21 1.21 1.23 1.21 1.21 1.19 1.18 1.24 1.31 1.36
1.04 1.05 1.05 1.03 1.00 0.96 0.93 0.91 0.89 0.87 0.83 0.82 0.85 0.90 0.96 1.01 1.01 1.01 1.03 1.06 1.07 1.06 1.05 1.05 1.08 1.13 1.16 1.18 1.20 1.21 1.23 1.23 1.23 1.21 1.21 1.22 1.22 1.22 1.23 1.26 1.30 1.35
1.07 1.07 1.07 1.06 1.04 1.01 0.96 0.92 0.88 0.86 0.84 0.81 0.79 0.86 0.93 0.94 0.95 0.98 1.00 1.06 1.08 1.06 1.06 1.08 1.09 1.13 1.15 1.17 1.19 1.20 1.22 1.24 1.24 1.24 1.22 1.21 1.22 1.22 1.23 1.24 1.28 1.32
1.10 1.09 1.07 1.07 1.06 1.02 0.97 0.90 0.86 0.83 0.84 0.84 0.82 0.82 0.86 0.89 0.92 0.94 0.97 1.00 1.04 1.06 1.07 1.10 1.11 1.14 1.15 1.16 1.17 1.19 1.21 1.24 1.24 1.23 1.23 1.22 1.22 1.22 1.24 1.25 1.27 1.28
1.11 1.09 1.06 1.06 1.04 1.00 0.95 0.90 0.86 0.83 0.83 0.83 0.83 0.82 0.81 0.84 0.87 0.89 0.92 0.95 0.99 1.04 1.06 1.08 1.11 1.15 1.15 1.16 1.17 1.18 1.21 1.23 1.24 1.24 1.23 1.21 1.22 1.23 1.24 1.26 1.28 1.31
1.09 1.07 1.05 1.04 1.01 0.97 0.92 0.88 0.85 0.84 0.81 0.83 0.85 0.85 0.85 0.85 0.86 0.90 0.90 0.91 0.94 0.99 1.03 1.04 1.10 1.15 1.16 1.17 1.18 1.18 1.21 1.22 1.22 1.21 1.19 1.20 1.20 1.21 1.23 1.26 1.28 1.28
1.10 1.06 1.03 1.00 0.98 0.94 0.90 0.87 0.84 0.83 0.84 0.86 0.83 0.83 0.82 0.82 0.82 0.83 0.88 0.90 0.92 0.95 0.99 1.03 1.07 1.13 1.16 1.18 1.18 1.20 1.20 1.21 1.21 1.20 1.18 1.16 1.17 1.20 1.23 1.24 1.26 1.28
1.10 1.06 1.01 0.98 0.96 0.92 0.89 0.87 0.88 0.88 0.86 0.88 0.85 0.84 0.83 0.85 0.86 0.85 0.86 0.90 0.91 0.91 0.96 1.00 1.05 1.12 1.16 1.17 1.18 1.20 1.21 1.19 1.19 1.18 1.16 1.16 1.17 1.21 1.23 1.24 1.25 1.27
1.09 1.06 1.02 0.98 0.95 0.93 0.91 0.88 0.88 0.88 0.88 0.90 0.90 0.91 0.89 0.90 0.91 0.89 0.88 0.89 0.90 0.90 0.93 1.00 1.05 1.10 1.14 1.15 1.17 1.18 1.20 1.21 1.20 1.18 1.14 1.16 1.18 1.18 1.22 1.21 1.21 1.24
1.06 1.04 1.02 1.00 0.97 0.94 0.93 0.91 0.93 0.91 0.89 0.88 0.90 0.91 0.91 0.92 0.92 0.91 0.88 0.86 0.88 0.88 0.89 0.96 1.02 1.06 1.11 1.13 1.15 1.16 1.19 1.21 1.22 1.17 1.13 1.14 1.17 1.19 1.16 1.16 1.18 1.20
Wind_Speed
7 8 8 9 10 10 10 11 11 12 12 12 12 13 13 13 13 13 13 13 14 15 15 15 16 16 17 17 17 17 17 18 18 19 21 22 23 24 24 25 25 25
8 9 10 10 11 11 11 11 12 12 13 13 13 13 13 13 14 14 14 14 14 14 15 16 16 17 17 18 18 19 19 19 19 19 20 22 23 24 25 25 26 26
9 10 11 11 11 12 12 12 13 13 13 13 14 14 14 14 14 15 15 15 15 15 15 16 16 17 17 18 19 20 20 20 20 20 21 21 22 23 25 25 26 27
11 11 12 12 13 13 13 14 14 14 14 14 15 14 14 15 15 15 16 16 16 16 16 17 17 18 18 18 19 20 21 21 22 22 22 22 22 23 24 25 26 27
12 12 13 13 14 14 14 15 15 15 15 16 15 15 15 16 16 16 17 17 17 18 18 18 18 18 19 19 19 20 21 21 22 22 23 23 23 23 24 25 26 27
13 13 14 14 14 15 15 15 16 16 16 16 16 16 16 17 17 18 18 18 18 18 18 18 18 18 18 19 19 20 21 21 22 23 24 24 25 25 25 25 26 27
14 15 15 15 15 15 16 16 16 16 17 17 17 17 17 18 18 18 18 19 18 18 18 18 19 19 19 19 20 20 20 21 22 23 24 25 26 26 26 26 26 26
15 15 16 16 16 16 16 17 17 17 18 18 18 18 19 19 19 19 19 19 19 19 19 20 20 20 20 20 21 21 20 21 21 22 23 24 25 26 27 27 27 27
16 16 16 16 17 17 18 18 18 19 19 19 19 19 19 19 20 20 20 20 20 20 20 20 20 21 21 21 21 21 21 21 21 22 22 23 24 25 26 27 28 28
17 17 17 17 18 18 19 19 19 19 19 19 20 20 20 20 20 20 20 20 20 20 20 21 21 21 21 21 21 21 22 22 22 22 22 23 23 24 25 26 28 29
17 17 18 18 19 19 19 19 19 20 20 20 20 20 21 21 21 21 21 21 21 21 21 21 21 21 21 21 21 21 22 23 23 23 23 24 24 25 25 25 27 28
18 18 19 19 19 19 19 20 20 20 21 21 21 21 21 22 21 21 21 21 21 21 21 21 21 21 21 21 22 22 22 23 23 23 24 24 25 25 25 26 26 27
18 19 19 20 20 20 20 20 21 21 21 22 22 22 22 22 22 22 22 22 22 22 22 22 22 22 22 22 22 22 22 23 23 24 24 25 25 26 26 26 26 27
19 20 20 20 20 21 21 21 22 22 22 22 22 22 22 22 22 23 22 22 22 22 22 22 22 22 22 22 23 23 23 23 24 24 25 25 25 26 26 27 27 27
20 20 20 21 21 21 22 22 23 23 23 23 23 23 23 23 23 23 23 23 23 23 23 23 23 23 23 23 23 23 23 23 24 24 25 25 26 26 26 27 27 27
21 21 21 21 22 22 23 23 24 24 24 24 24 23 23 23 23 23 23 24 24 24 24 24 23 23 24 24 24 24 24 24 24 25 25 26 26 26 26 27 27 27
21 22 22 22 22 23 24 24 24 25 24 25 24 24 24 24 24 24 24 24 24 24 24 24 24 24 24 25 25 25 24 24 24 25 25 26 26 27 27 27 27 27
22 23 23 23 24 24 25 25 25 25 25 25 25 25 24 24 24 25 25 25 25 25 25 25 25 25 25 25 25 25 25 25 25 25 25 26 26 27 28 28 28 28
23 23 23 24 24 25 25 26 26 26 26 26 26 25 25 25 25 25 25 25 25 25 26 25 25 26 26 26 26 26 26 26 25 25 25 26 26 27 28 28 29 28
24 23 24 24 25 26 26 26 27 27 27 27 26 26 26 26 26 26 26 26 26 26 26 26 26 26 27 27 27 27 27 26 26 26 26 26 26 27 27 28 29 29
23 24 24 25 26 26 27 27 27 27 27 27 26 26 26 26 26 27 27 27 27 27 27 27 27 27 27 27 27 27 27 27 26 26 26 26 26 27 27 28 29 29
24 25 25 26 26 27 27 28 28 27 27 27 26 26 26 26 27 27 28 28 28 28 28 28 28 28 28 27 27 27 27 27 27 27 27 27 27 27 27 28 28 29
25 25 26 27 27 27 28 28 28 27 27 27 26 27 27 27 28 28 28 28 28 28 29 29 28 28 28 28 27 28 28 27 27 27 27 27 27 27 28 28 28 29
26 26 26 27 28 28 28 28 28 27 27 27 27 28 28 28 29 29 29 29 29 29 29 29 29 28 28 28 28 28 28 28 28 28 28 28 28 28 28 28 28 29
26 26 27 27 28 28 28 28 28 28 28 28 28 29 29 29 29 29 29 29 30 30 30 29 29 28 29 29 28 28 28 28 28 28 28 28 28 28 28 29 29 29
26 26 27 28 28 28 28 28 28 28 28 29 29 29 29 29 29 30 30 30 30 30 30 29 29 28 29 29 29 29 28 28 28 28 29 29 28 29 29 29 29 29
Wind_Direction
321 320 319 318 317 316 314 313 313 312 311 311 310 309 308 307 306 306 302 297 291 287 284 280 277 273 270 267 265 263 261 259 257 253 250 247 246 245 243 242 240 240
319 317 316 316 315 314 314 313 312 312 311 310 309 307 306 305 305 305 304 301 296 291 286 283 279 275 271 268 265 263 261 260 259 256 253 250 248 247 246 244 242 240
314 313 313 313 312 311 310 310 310 310 309 308 307 306 304 304 304 304 303 301 298 294 289 285 282 279 275 271 267 264 262 260 259 257 255 252 250 248 247 246 243 241
312 311 310 309 309 309 308 308 307 307 306 306 306 305 304 303 302 302 301 299 296 293 290 287 285 282 279 275 271 267 264 261 259 258 256 254 252 250 248 246 245 243
309 308 308 308 308 308 308 308 307 306 306 305 304 304 303 302 300 299 298 297 294 292 291 289 286 283 280 277 273 270 267 264 260 258 256 254 253 252 250 248 247 245
307 307 307 307 307 308 308 307 307 307 306 305 304 303 302 301 300 299 298 297 295 293 291 290 288 284 280 277 275 273 270 267 263 259 256 255 254 253 251 250 249 247
308 308 307 307 307 307 307 307 307 306 305 304 303 302 302 301 300 299 298 297 296 294 292 290 288 284 281 279 277 275 272 269 265 262 259 257 255 254 252 252 251 249
309 308 307 307 307 307 307 306 305 305 304 303 302 301 301 300 299 298 297 296 294 293 291 289 287 284 281 280 278 275 272 269 267 264 262 259 257 255 254 252 252 250
308 307 306 306 306 305 305 304 304 303 303 303 302 301 300 300 299 298 297 296 294 293 292 290 288 285 281 279 277 274 271 270 268 266 264 262 260 258 256 253 252 251
305 305 305 304 304 304 304 303 303 303 303 302 301 300 300 300 299 299 298 296 295 293 293 292 290 286 283 280 277 274 272 270 269 267 265 264 262 260 258 256 253 252
303 304 304 303 303 303 303 303 303 302 302 301 301 300 300 299 299 298 298 297 295 293 292 292 290 288 284 281 278 276 273 271 269 268 266 265 263 262 260 259 256 253
302 302 302 302 303 303 303 303 302 302 302 301 300 299 298 298 298 297 297 296 295 293 292 291 290 288 285 282 280 277 274 272 270 269 267 266 264 263 262 260 258 256
302 301 301 301 301 301 301 302 302 302 301 300 299 298 297 297 296 296 296 295 294 293 291 290 289 288 285 283 281 278 275 274 272 270 269 267 266 264 262 261 260 258
301 301 301 300 300 300 301 301 301 301 300 299 298 297 296 295 295 295 295 294 294 292 291 290 289 288 286 284 282 279 276 274 272 271 270 269 267 265 263 261 260 259
301 301 301 300 300 300 300 301 300 300 299 299 298 297 296 295 295 294 294 294 293 292 290 289 288 287 285 284 282 280 278 275 273 272 271 270 268 266 264 262 260 259
300 299 299 300 300 300 300 300 300 299 299 298 298 297 296 295 294 294 294 293 292 291 290 289 288 286 285 284 283 281 280 277 274 273 271 270 269 267 265 263 261 260
298 298 298 299 300 300 300 300 299 298 298 297 297 296 295 294 294 294 294 294 292 291 290 288 287 286 284 283 282 282 281 279 276 274 272 270 268 267 266 264 263 261
297 297 298 298 299 300 300 300 299 298 298 297 296 295 294 293 294 294 294 294 292 291 290 288 287 285 284 283 281 281 280 279 278 275 273 271 269 267 266 265 264 263
296 296 297 298 299 300 300 300 299 298 298 297 296 294 293 293 294 294 294 293 292 291 290 289 287 285 284 282 281 280 279 279 278 276 274 272 270 268 267 265 264 263
295 296 297 298 299 300 300 300 299 298 298 297 296 294 293 293 293 293 294 293 292 291 290 289 287 286 284 282 281 280 279 278 277 276 275 274 272 271 268 266 265 264
295 296 298 299 299 300 300 300 299 298 298 297 296 294 293 293 293 293 293 293 292 291 290 288 287 286 284 282 280 279 278 277 276 276 275 274 273 272 271 268 266 265
297 298 298 299 299 300 300 300 299 298 298 297 296 295 294 294 293 293 293 292 292 291 290 288 287 286 284 282 281 279 278 276 275 275 275 274 273 273 272 270 269 266
298 298 298 299 299 299 299 299 299 299 298 298 296 296 295 294 294 293 293 292 291 291 290 288 287 286 284 283 281 280 278 277 276 275 274 273 273 272 272 271 270 268
299 298 298 299 299 299 299 299 299 299 298 298 297 296 295 294 294 293 292 292 291 291 290 288 286 285 284 282 281 280 279 277 276 275 274 273 273 272 272 271 270 269
299 298 298 298 299 299 299 299 299 299 299 298 298 297 295 294 293 293 292 292 291 291 289 288 286 285 283 282 281 280 279 278 276 276 275 274 273 272 271 271 270 269
300 299 299 299 300 300 300 300 300 299 299 299 298 298 297 295 294 293 292 292 291 290 289 288 286 285 284 282 281 280 279 278 276 275 275 274 274 272 272 271 270 269